Theta_e
305 310 313 314 314 314 313 313 315 317 318 316 316 316 315 313 311 306 303 302 303 308 310 312 314 310 308 311 313 312 310 308 310 309 311 309 311 312 313 313 314 315 315 314 314
305 306 303 305 312 313 312 312 313 314 318 318 317 317 316 316 313 309 306 303 302 304 310 310 313 310 312 312 312 310 309 308 307 307 310 310 310 312 312 311 313 314 315 315 314
306 307 306 305 304 307 309 310 311 312 314 318 317 317 317 316 315 308 305 304 302 302 307 312 311 309 311 311 311 309 309 306 309 310 311 311 310 311 310 310 313 314 315 314 314
308 307 307 305 304 304 307 307 308 311 313 314 316 316 316 316 315 307 308 308 304 302 309 313 311 311 309 309 311 310 308 308 309 311 310 309 310 310 310 313 314 314 313 313 313
306 307 307 306 304 304 303 306 307 308 310 312 314 315 315 314 316 315 315 306 302 305 312 312 311 310 308 307 309 309 308 309 310 311 311 310 309 309 309 313 313 313 312 312 312
305 305 307 307 305 304 304 303 304 305 307 310 311 312 312 314 313 314 315 307 302 307 311 309 310 310 309 308 308 310 309 309 309 310 310 309 309 310 311 312 312 311 311 311 311
303 304 304 306 306 305 304 304 303 303 304 306 308 310 310 310 312 314 309 308 310 310 310 311 309 310 309 307 310 309 310 308 308 309 309 309 309 308 310 311 311 312 312 311 311
301 302 304 304 305 306 304 303 303 302 303 305 307 308 309 309 309 310 312 309 310 311 311 311 310 310 309 309 308 308 308 309 308 307 309 309 311 308 311 310 311 311 311 311 312
299 300 301 302 303 306 305 304 304 302 302 303 306 306 306 308 308 306 309 312 313 312 309 309 309 309 309 307 308 305 307 307 308 306 308 306 308 307 309 309 310 311 311 311 312
300 300 299 300 302 303 306 304 303 303 301 301 303 304 305 307 307 309 308 310 311 312 308 308 309 306 305 307 310 308 308 306 307 307 307 307 305 306 308 309 310 311 312 313 314
300 300 300 299 300 301 304 305 303 302 301 301 302 304 306 307 307 308 310 311 311 308 306 307 307 309 308 307 307 306 307 307 306 306 308 307 307 307 308 308 309 311 313 314 315
300 300 300 300 300 301 302 305 302 301 301 300 300 303 304 308 308 308 310 311 309 307 304 306 308 306 306 305 306 306 307 307 308 308 308 308 308 307 307 307 310 312 313 314 315
299 299 299 300 300 300 302 301 302 302 301 301 301 301 302 304 306 308 309 311 310 308 306 307 306 305 306 306 307 306 308 307 308 308 307 308 308 308 308 307 310 312 313 314 315
298 299 299 299 301 301 301 302 302 300 300 300 302 303 302 303 306 308 308 311 308 311 306 306 304 306 306 307 307 309 305 307 308 309 309 306 310 306 307 307 307 309 311 313 313
298 298 298 298 300 301 300 302 301 298 300 298 303 304 303 303 306 306 308 310 309 308 308 309 304 305 306 307 307 308 306 306 307 307 308 307 308 305 305 309 308 308 312 311 311
298 298 299 300 299 300 300 302 299 299 299 298 304 306 305 305 306 306 308 309 310 308 308 307 304 305 306 304 306 303 304 304 303 305 309 306 306 306 308 310 310 308 309 310 310
298 298 300 299 300 300 299 298 298 298 297 297 305 306 305 306 305 305 308 309 310 311 311 310 307 305 304 305 304 306 307 309 308 307 309 304 306 309 306 306 305 307 308 308 309
297 298 297 299 300 299 300 297 298 295 295 301 304 304 306 304 306 306 308 308 308 308 309 311 313 307 305 306 306 306 307 309 309 310 309 304 309 308 305 305 306 305 306 308 309
298 298 298 298 300 299 297 298 299 294 298 301 305 306 306 305 304 306 307 307 308 308 310 311 311 305 305 305 307 307 308 306 307 298 307 306 305 305 304 303 303 303 305 307 308
297 298 299 298 299 298 297 298 293 297 301 302 304 303 299 305 305 305 306 306 307 307 306 307 310 306 305 306 306 307 308 309 310 309 310 309 308 310 309 305 304 304 304 305 308
298 298 298 299 299 296 298 296 295 299 301 301 300 297 302 303 304 303 306 306 306 307 306 305 307 307 305 308 309 307 308 308 309 311 313 312 310 304 308 305 304 303 304 306 307
297 298 297 298 296 296 295 294 298 300 301 301 301 303 299 301 303 304 304 303 304 306 309 305 306 305 307 306 305 308 309 309 312 311 307 310 310 302 301 302 303 305 307 307 307
296 295 296 297 296 296 293 295 296 298 298 299 300 301 301 301 301 304 304 303 304 305 307 307 308 309 308 308 304 307 306 308 308 307 309 312 310 300 301 303 305 306 307 307 308
295 295 294 295 293 295 293 296 296 298 299 298 298 301 301 302 301 304 305 304 303 304 307 307 307 308 308 308 307 307 307 307 309 311 311 311 308 302 302 302 302 306 307 308 308
294 291 293 295 292 293 294 294 294 296 298 298 298 298 298 298 299 302 301 304 304 304 305 307 304 306 307 303 305 308 309 306 309 310 312 311 306 303 302 302 302 306 307 308 309
291 288 290 293 293 294 296 291 296 295 296 297 298 296 295 294 299 297 302 303 304 304 302 305 306 299 300 305 303 305 307 306 307 308 310 306 306 304 303 303 303 305 306 308 308
293 294 294 295 295 293 291 294 296 296 296 296 295 294 294 295 299 300 301 300 302 303 305 306 301 302 308 301 300 305 304 306 306 306 307 307 308 303 302 300 303 304 306 308 308
Wind_Speed
22 28 30 26 27 24 21 20 18 16 16 15 17 17 18 17 16 17 21 16 15 12 12 17 17 15 17 14 10 6 1 4 5 7 5 5 4 4 4 5 8 9 8 6 4
17 16 18 23 29 27 28 24 21 21 15 16 15 14 19 20 21 23 19 16 15 17 17 21 21 18 10 10 9 6 4 10 7 5 3 4 5 6 4 5 7 12 15 13 10
17 17 16 15 17 28 25 24 26 24 21 11 13 13 15 18 22 7 6 13 22 19 22 18 19 20 8 8 10 7 6 5 5 10 4 3 4 5 5 5 14 13 14 16 15
21 19 19 17 15 18 22 21 25 26 23 24 11 15 14 11 6 5 7 8 20 20 22 22 20 14 7 6 9 3 10 6 2 7 6 4 3 4 14 9 3 9 11 11 16
23 24 21 19 15 16 17 23 20 25 27 23 19 20 15 14 21 23 21 13 18 21 24 23 26 13 7 8 7 4 4 8 13 5 9 5 8 7 14 19 21 18 17 16 17
23 24 25 23 20 19 17 16 24 24 26 24 22 25 21 19 23 23 13 10 15 21 23 23 15 16 8 6 9 8 12 4 4 14 11 5 4 4 6 14 25 28 28 25 24
25 24 24 26 25 23 20 21 20 18 29 28 25 24 29 31 16 9 9 9 11 16 23 26 21 17 7 2 10 5 2 2 8 6 5 8 7 15 24 26 25 21 21 20 21
28 27 25 26 27 26 22 21 21 18 20 24 20 21 24 20 36 40 25 16 12 12 21 20 23 14 6 3 3 5 2 3 4 9 5 9 12 6 7 20 27 23 21 20 22
22 25 33 31 28 25 25 22 20 17 16 22 23 15 16 9 28 39 34 32 24 17 19 17 15 12 6 5 1 4 4 4 6 13 4 7 6 6 8 11 14 14 16 15 14
26 24 24 25 28 26 27 22 21 18 15 16 17 11 23 13 28 22 31 34 25 14 13 16 10 5 4 7 11 5 5 4 6 5 4 5 9 13 16 8 12 14 15 17 19
24 25 24 26 23 26 26 21 14 8 21 17 12 21 3 11 13 29 24 26 22 16 8 10 6 19 19 9 7 6 5 7 4 4 5 8 9 16 10 8 18 28 31 28 27
25 25 24 24 24 22 27 30 27 4 6 26 34 30 32 3 9 21 21 20 17 11 7 4 22 7 8 7 7 5 5 4 3 3 5 4 11 10 8 9 24 30 33 34 31
28 27 26 23 25 25 30 32 24 25 5 10 29 35 36 27 11 18 27 24 11 12 16 16 3 11 12 8 12 7 12 5 4 1 3 4 9 6 10 11 24 33 34 36 37
30 28 23 22 22 29 31 32 31 20 4 5 9 15 25 33 13 25 33 23 8 20 9 11 6 14 10 15 14 17 7 7 4 2 5 1 9 5 5 7 6 20 27 36 36
29 27 24 21 25 22 26 24 27 15 5 7 9 5 15 26 12 25 29 25 15 11 9 10 9 8 10 7 13 7 9 9 4 2 2 3 4 6 2 5 9 9 25 18 16
29 26 22 23 27 33 22 26 27 5 7 5 10 11 10 29 6 10 26 19 12 9 11 10 7 11 13 6 14 8 7 6 4 3 8 8 6 4 6 6 8 2 3 5 6
30 28 24 25 30 28 26 28 5 6 3 5 7 9 19 17 22 6 21 19 12 11 10 1 5 4 6 7 4 5 11 2 0 2 8 4 9 13 5 8 7 8 9 11 12
28 26 34 25 32 27 36 6 8 5 8 2 4 7 15 15 15 10 18 23 16 9 9 13 9 11 6 7 10 9 12 6 8 5 5 1 8 6 8 12 15 14 12 8 8
30 26 31 31 36 36 29 11 9 8 8 6 4 10 11 12 5 14 16 24 24 20 12 13 10 4 12 6 17 7 12 11 6 3 3 5 7 8 9 10 7 8 6 6 5
27 26 28 34 32 45 12 11 6 3 3 6 9 6 8 12 10 13 14 17 20 17 4 6 5 7 6 5 4 13 13 6 4 7 5 4 4 4 5 7 5 4 5 5 4
23 9 20 40 42 20 10 7 5 6 4 5 5 3 6 7 14 8 3 8 24 18 12 5 4 2 8 10 15 6 9 3 5 4 8 4 6 6 5 4 7 4 6 4 3
12 6 36 50 7 4 5 6 5 6 4 3 3 2 3 3 7 11 13 12 12 10 20 7 4 4 13 1 2 18 11 21 10 9 4 2 5 1 5 5 8 8 9 7 6
8 7 39 46 8 9 0 2 3 4 4 5 5 4 2 2 3 7 9 10 8 13 14 15 6 5 3 0 2 7 10 19 10 4 7 9 6 1 3 4 5 7 7 7 6
13 5 8 13 6 14 7 5 5 2 4 4 3 3 2 2 1 3 2 4 8 10 24 12 11 14 11 16 6 9 12 15 20 11 9 11 6 5 6 7 6 8 6 5 4
13 3 8 8 3 11 4 6 5 6 2 7 3 6 6 3 2 5 5 3 2 5 8 7 10 17 17 5 6 12 14 9 12 18 14 12 8 8 11 12 12 12 7 5 4
12 9 9 10 16 10 11 4 6 4 6 4 3 7 7 6 6 3 2 2 5 4 4 8 5 5 2 1 7 5 16 14 14 12 16 7 8 7 13 8 12 16 12 8 5
18 26 16 15 12 6 5 7 6 8 1 5 6 4 3 8 9 14 12 6 4 4 8 9 6 4 15 5 5 5 11 15 11 12 15 11 16 7 4 8 18 19 16 10 5
Wind_Direction
269 265 268 263 263 269 278 282 281 289 280 284 299 303 304 301 294 279 264 260 251 227 212 206 198 194 184 187 186 171 92 221 224 164 243 174 182 192 206 214 200 204 225 217 211
300 299 291 277 264 269 269 266 272 270 289 267 274 287 298 301 301 281 274 256 241 229 216 205 199 188 180 182 189 175 177 211 204 203 226 197 193 193 179 202 240 232 231 237 231
286 289 296 306 300 260 267 261 255 264 270 297 262 276 284 298 311 286 270 242 230 223 213 214 207 185 189 180 188 190 217 205 235 215 224 199 216 213 184 223 222 223 238 232 232
277 274 276 285 303 278 260 270 256 251 261 263 269 270 273 288 260 186 348 283 219 207 201 199 197 180 169 194 194 199 231 196 259 212 184 200 213 230 214 241 235 236 243 239 234
275 272 270 274 272 290 298 259 271 251 252 257 263 265 277 263 249 259 298 321 197 198 201 197 190 189 182 190 157 216 224 222 228 217 226 221 229 244 251 248 252 257 254 251 246
266 269 271 267 266 264 266 282 270 261 256 257 262 256 265 256 264 271 279 270 209 203 202 201 210 198 201 208 182 213 217 216 229 234 239 222 245 232 237 239 246 247 255 259 256
273 263 268 265 270 266 267 268 278 305 255 255 266 266 262 248 251 273 245 215 211 216 213 213 219 197 200 183 220 200 178 215 225 216 238 201 274 237 242 250 257 250 258 260 257
267 268 266 269 275 269 264 266 266 280 262 254 259 263 261 259 247 251 244 229 236 242 225 223 221 225 217 168 67 150 97 187 248 157 231 162 258 272 265 238 250 256 258 262 254
271 269 266 264 270 268 261 260 263 267 272 257 253 266 266 257 244 245 241 251 256 259 237 227 214 212 179 130 65 349 178 188 282 193 146 189 257 259 231 241 249 251 258 262 268
271 275 276 268 262 267 262 250 254 252 249 263 256 276 249 253 228 236 232 236 246 245 217 210 192 173 162 170 206 175 192 215 212 210 176 205 255 271 257 261 268 262 256 265 266
270 275 275 264 267 257 253 224 207 211 216 197 212 212 239 254 231 230 230 221 204 201 176 194 194 207 196 202 190 171 185 187 216 216 166 227 248 259 256 245 264 269 272 271 266
269 271 270 267 263 258 250 228 211 211 189 228 242 249 240 62 225 216 211 182 190 199 136 159 227 201 174 185 177 167 179 209 273 154 176 267 257 251 253 240 251 257 267 267 267
268 269 267 265 258 259 247 244 227 222 230 233 235 234 230 248 245 214 192 187 197 192 194 206 210 161 174 177 191 197 203 171 199 162 235 308 270 225 255 223 249 254 256 261 262
260 262 266 265 255 251 247 244 243 210 239 221 205 248 217 227 231 220 203 178 186 206 168 234 206 191 178 199 184 213 162 167 169 136 244 167 282 281 251 272 232 253 250 250 256
262 261 256 256 242 236 248 241 215 183 217 203 174 215 210 182 155 211 207 194 189 164 166 212 156 153 208 193 179 203 154 177 149 167 334 206 292 267 212 275 260 247 249 262 262
260 261 260 252 247 244 248 221 182 205 225 185 149 180 158 200 231 152 184 204 208 177 197 208 192 180 198 164 180 134 89 61 56 93 258 197 185 225 174 210 256 186 217 235 290
257 261 248 252 237 232 206 167 206 210 293 210 176 188 190 191 214 195 181 192 184 182 194 54 179 188 149 113 117 147 146 125 209 194 240 307 197 251 247 249 222 243 257 286 293
259 262 250 248 231 209 192 184 219 183 204 162 155 169 193 196 209 220 187 194 209 183 171 188 209 176 179 172 162 185 178 170 189 193 205 142 229 239 230 252 267 260 271 276 259
258 254 262 241 226 203 183 205 194 201 182 150 119 180 189 194 185 210 210 205 200 189 184 192 227 138 175 154 154 197 205 190 102 41 108 209 285 287 251 263 250 252 238 246 247
255 257 249 229 216 190 181 199 216 226 109 163 188 174 178 184 192 189 206 206 216 213 217 201 196 196 169 115 222 181 181 173 214 166 223 252 269 230 248 243 213 210 220 220 228
252 244 234 205 188 177 190 199 191 190 156 142 193 146 217 172 194 192 188 247 209 211 212 184 155 174 136 198 183 174 183 184 186 165 209 239 251 216 217 213 178 127 127 154 176
274 217 176 177 148 183 187 190 150 154 166 106 95 103 195 204 197 207 206 199 214 192 205 213 153 152 199 17 20 210 191 193 202 197 211 148 255 264 248 170 145 139 116 117 113
216 167 169 174 155 173 180 185 133 142 129 157 166 168 122 319 247 197 224 223 172 187 200 197 204 178 130 49 20 201 203 200 192 107 197 212 240 77 155 168 169 139 123 114 107
181 169 133 176 132 158 146 174 147 103 113 140 136 112 101 240 154 276 308 252 219 193 217 188 224 220 211 209 156 187 189 191 201 210 201 205 194 206 210 198 203 183 153 141 134
186 157 163 160 157 151 135 143 141 155 104 138 143 180 178 171 182 219 241 218 292 257 224 198 205 223 232 242 162 200 207 183 202 212 213 222 205 208 200 197 198 188 174 174 175
145 141 87 141 126 127 168 200 148 146 142 141 160 199 214 172 186 269 56 144 230 208 210 168 249 132 210 105 177 206 207 192 206 215 216 208 233 207 209 171 196 201 188 193 190
134 140 123 148 156 123 188 152 151 121 173 150 180 176 246 222 234 241 234 197 264 258 207 185 161 170 223 156 127 230 200 192 207 215 201 201 225 151 174 195 205 201 195 198 214